Probability
0 0 0 0 0 0 0 0 0 0 0 0 0 0 0 0 0 0 0 1 4 5 5 4 5 6 6 6 6 7 9 10 10 9 9 8 8 9 8 5 4 3 3 3
0 0 0 0 0 0 0 0 0 0 0 0 0 0 0 0 0 0 0 1 3 4 4 4 4 5 6 6 6 7 9 10 10 9 8 8 9 10 10 7 4 3 3 3
0 0 0 0 0 0 0 0 0 0 0 0 0 0 0 0 0 0 0 1 1 2 3 3 3 4 6 6 6 6 8 9 10 9 8 8 10 11 11 9 5 3 3 3
0 0 0 0 0 0 0 0 0 0 0 0 0 0 0 0 0 0 0 0 1 2 4 3 3 4 6 6 6 5 6 8 9 9 7 7 7 8 9 9 6 4 3 3
0 0 0 0 0 0 0 0 0 0 0 0 0 0 0 0 0 0 0 0 1 3 3 3 3 5 6 6 6 5 6 7 9 9 7 7 6 7 7 7 5 4 3 3
0 0 0 0 0 0 0 0 0 0 0 0 0 0 0 0 0 0 0 1 2 3 3 3 4 5 6 6 6 6 7 8 9 8 7 7 7 7 7 6 5 4 3 3
0 0 0 0 0 0 0 0 0 0 0 0 0 0 0 0 0 0 0 1 3 4 4 4 4 4 5 5 6 7 7 7 7 7 7 7 7 7 6 6 5 4 3 2
0 0 0 0 0 0 0 0 0 0 0 0 0 0 0 0 0 0 0 2 3 4 5 5 3 3 3 4 4 5 6 6 6 6 6 6 6 6 6 5 4 2 1 1
0 0 0 0 0 0 0 0 0 0 0 0 0 0 0 0 0 0 1 2 3 4 4 3 1 1 2 3 3 4 5 6 6 6 6 6 6 5 4 4 3 1 0 1
0 0 0 0 0 0 0 0 0 0 0 0 0 0 0 0 0 0 2 3 3 4 3 1 0 0 1 1 2 3 4 5 6 6 5 4 4 4 3 3 3 1 1 1
0 0 0 0 0 0 0 0 0 0 0 0 0 0 0 0 0 1 1 2 4 4 2 0 0 0 0 0 1 1 2 4 5 5 4 3 3 3 3 3 3 2 1 1
0 0 0 0 0 0 0 0 0 0 0 0 0 0 0 0 1 1 1 2 4 4 2 0 0 0 0 0 0 0 1 3 4 4 4 3 3 3 3 3 3 3 2 1
0 0 0 0 0 0 0 0 0 0 0 0 0 0 0 0 1 2 2 2 4 4 2 0 0 0 0 0 0 0 1 2 3 3 3 3 3 3 3 3 3 3 3 2
0 0 0 0 0 0 0 0 0 0 0 0 0 0 0 0 2 3 3 3 4 4 2 0 0 0 0 0 0 0 1 1 1 3 3 3 3 3 3 3 3 4 5 5
0 0 0 0 0 0 0 0 0 0 0 0 0 0 0 0 2 3 3 3 4 5 3 1 0 0 0 0 0 0 0 0 1 3 4 4 4 4 4 4 5 6 6 6
0 0 0 0 0 0 0 0 0 0 0 0 0 0 0 0 2 3 3 3 4 5 4 2 0 0 0 0 0 0 0 0 1 2 4 5 5 5 5 5 6 7 7 6
0 0 0 0 0 0 0 0 0 0 0 0 0 0 0 1 2 3 3 3 3 3 3 1 0 0 0 0 0 0 0 0 0 1 3 4 4 4 4 5 6 7 7 6
0 0 0 0 0 0 0 0 0 0 0 0 0 0 0 1 2 2 2 2 2 1 1 0 0 0 0 0 0 0 0 0 0 0 1 2 3 3 3 4 5 6 6 6
0 0 0 0 0 0 0 0 0 0 0 0 0 0 0 0 1 1 1 1 1 0 0 0 0 0 0 0 0 0 0 0 0 0 0 1 1 2 2 3 3 4 5 6
0 0 0 0 0 0 0 0 0 0 0 0 0 0 0 0 0 0 0 0 0 0 0 0 0 0 0 0 0 0 0 0 0 0 0 0 0 1 2 2 2 2 3 4
0 0 0 0 0 0 0 0 0 0 0 0 0 0 0 0 0 0 0 0 0 0 0 0 0 0 0 0 0 0 0 0 0 0 0 0 0 0 1 1 2 2 3 2
0 0 0 0 0 0 0 0 0 0 0 0 0 0 0 0 0 0 0 0 0 0 0 0 0 0 0 0 0 0 0 0 0 0 0 0 0 0 0 0 1 2 2 2
0 0 0 0 0 0 0 0 0 0 0 0 0 0 0 0 0 0 0 0 0 0 0 0 0 0 0 0 0 0 0 0 0 0 0 0 0 0 0 0 0 1 1 2
0 0 0 0 0 0 0 0 0 0 0 0 0 0 0 0 0 0 0 0 0 0 0 0 0 0 0 0 0 0 0 0 0 0 0 0 0 0 0 0 0 0 0 1
0 0 0 0 0 0 0 0 0 0 0 0 0 0 0 0 0 0 0 0 0 0 0 0 0 0 0 0 0 0 0 0 0 0 0 0 0 0 0 0 0 0 0 0
0 0 0 0 0 0 0 0 0 0 0 0 0 0 0 0 0 0 0 0 0 0 0 0 0 0 0 0 0 0 0 0 0 0 0 0 0 0 0 0 0 0 0 0
Wind_Speed
3 2 1 1 2 3 2 1 1 2 4 3 3 4 5 6 5 4 4 3 4 4 5 5 4 4 2 2 3 3 3 3 2 2 2 2 2 2 1 2 2 3 3 3
3 1 1 1 2 3 3 3 2 2 4 3 4 4 5 6 6 4 3 3 3 4 5 5 4 3 3 2 2 3 3 3 3 2 1 1 1 1 2 2 2 3 3 3
1 3 2 1 2 4 4 4 3 2 2 5 5 5 6 7 6 5 3 2 3 4 5 5 4 3 3 3 2 2 2 3 3 3 2 2 2 2 2 1 1 2 2 3
0 2 1 2 3 5 3 3 4 5 6 5 6 4 2 6 6 6 4 3 2 2 3 4 4 4 3 3 2 2 2 2 3 3 2 2 2 1 1 0 1 1 2 2
1 1 1 3 3 5 4 5 6 8 8 8 7 6 2 4 5 5 4 3 3 3 3 4 4 4 3 3 2 2 2 2 3 2 2 1 2 1 1 1 1 1 1 1
1 1 2 3 2 3 4 6 8 8 6 7 7 5 1 2 4 4 3 3 3 3 4 4 4 4 3 3 3 2 2 2 2 2 2 2 2 2 2 2 2 1 1 1
5 5 3 1 3 3 5 5 3 4 4 4 2 2 1 4 5 4 3 2 3 4 4 4 4 3 4 3 2 3 3 2 1 1 2 2 2 1 1 1 1 1 1 1
4 4 5 2 3 4 5 5 4 4 3 2 2 2 4 5 5 5 4 3 3 3 4 4 4 3 4 4 3 3 2 2 1 1 1 1 2 1 1 0 1 0 0 0
5 1 4 4 3 5 4 4 5 6 7 6 3 3 5 4 4 4 4 4 3 3 3 4 4 4 4 4 4 3 3 2 1 1 1 1 1 1 1 0 1 0 1 0
6 4 2 3 4 5 5 6 4 3 4 4 3 3 2 5 3 4 3 3 3 3 3 3 3 3 3 3 3 3 3 2 2 1 0 1 1 1 1 1 1 1 1 1
6 6 4 4 4 4 4 5 4 4 4 4 3 1 4 4 3 2 3 3 3 3 3 2 2 2 3 3 3 3 2 2 2 1 0 1 1 1 1 1 0 1 1 1
4 5 6 5 3 2 3 5 5 4 5 4 4 1 3 4 4 3 2 2 3 3 2 2 2 3 2 2 2 2 2 2 2 1 1 0 0 0 0 0 1 1 1 1
5 5 6 4 3 3 4 4 6 6 5 5 5 1 3 4 3 2 2 2 3 2 1 2 3 2 2 1 1 1 1 1 2 1 0 0 0 0 0 1 1 1 1 1
4 7 7 7 5 4 4 5 5 6 5 6 6 6 3 3 3 2 2 2 2 1 2 2 2 2 1 1 1 1 1 1 1 1 1 1 1 0 0 1 1 1 1 1
5 8 9 9 9 7 7 8 7 8 8 8 8 7 6 3 3 3 3 3 2 1 2 2 1 1 1 1 1 1 1 1 0 1 1 0 1 1 0 1 2 2 1 2
5 8 9 11 9 8 9 9 9 9 8 9 8 8 4 3 4 3 3 3 3 2 2 1 1 0 0 1 0 1 1 1 1 1 0 1 1 1 1 1 1 2 2 2
5 8 9 9 8 9 9 5 5 4 5 5 6 4 5 4 5 5 4 4 4 4 3 2 2 1 1 2 1 1 0 0 0 0 0 0 0 1 1 2 1 1 1 1
7 8 6 7 7 9 1 3 3 1 3 3 3 4 5 4 4 3 3 4 3 3 3 3 2 2 2 1 1 1 1 1 1 1 1 1 0 1 1 1 1 1 1 1
5 5 5 5 6 6 2 2 2 2 3 3 3 4 4 4 3 3 4 4 4 3 3 2 2 2 2 2 2 1 1 1 1 1 1 1 1 1 1 1 1 1 1 2
4 5 5 6 6 6 1 4 3 2 1 3 3 4 4 3 3 3 3 3 4 4 3 3 2 3 2 2 2 2 1 1 1 1 2 2 1 1 1 1 1 1 1 2
5 5 7 8 7 4 2 3 2 1 2 5 5 4 4 3 3 3 4 4 4 3 3 3 2 2 1 1 1 2 2 1 1 1 2 2 1 1 1 1 1 1 1 1
4 4 5 6 7 4 3 2 1 3 4 4 5 5 5 4 4 3 3 3 3 3 3 3 2 2 1 1 1 2 2 2 2 1 1 2 1 1 1 1 1 1 1 1
3 2 2 2 2 1 2 2 3 4 4 4 4 5 5 5 5 3 3 2 2 2 2 2 1 2 1 1 1 1 2 2 2 2 2 2 2 1 1 1 1 1 1 1
3 2 3 4 2 1 0 2 3 3 4 4 4 4 5 5 5 4 3 2 2 2 2 1 1 1 2 1 1 1 1 1 1 2 2 1 2 2 1 1 1 1 1 1
4 3 3 5 4 3 2 2 3 3 4 4 4 4 5 5 5 5 4 3 3 2 2 2 1 1 1 1 0 1 1 1 1 2 1 1 1 1 1 1 1 1 1 1
5 5 4 4 3 4 4 4 4 4 4 4 4 4 4 5 5 5 4 3 2 2 1 2 1 1 1 1 0 1 1 1 1 2 1 1 1 1 1 1 1 2 2 1
Wind_Direction
200 219 206 242 285 313 304 254 197 145 147 195 219 207 177 171 187 201 199 189 173 156 137 127 132 124 113 93 87 88 79 73 62 39 42 49 51 69 55 54 36 37 38 42
201 218 344 17 357 301 286 271 225 177 175 214 230 231 195 176 186 194 212 197 176 161 143 133 135 125 120 102 86 90 84 76 79 65 50 63 82 89 89 56 42 40 35 33
250 59 41 312 270 264 258 275 296 288 241 226 234 242 216 174 176 176 206 215 187 171 158 151 146 133 118 110 100 95 97 92 84 82 64 43 46 40 52 48 42 36 36 36
156 72 328 281 277 284 285 326 302 277 269 253 230 256 234 171 172 174 181 194 191 169 155 146 144 138 128 115 105 97 85 83 80 81 68 64 61 51 45 40 55 43 49 45
224 138 269 286 301 304 328 319 286 271 268 273 256 257 227 177 175 180 176 179 178 158 142 144 143 133 128 122 114 99 82 75 82 89 89 78 64 55 46 49 52 54 48 52
257 201 264 300 297 304 305 278 264 254 254 259 250 244 237 180 161 159 157 166 167 155 141 132 125 127 119 111 118 113 92 71 70 90 103 93 83 70 49 41 34 24 38 30
212 193 177 283 279 234 267 279 265 236 219 239 211 226 141 96 89 103 111 117 140 144 140 134 130 135 134 133 128 119 110 105 88 75 82 89 90 80 73 54 46 25 25 17
255 207 170 194 269 282 265 266 279 292 284 293 217 221 108 101 91 89 97 96 102 123 138 137 133 138 141 146 155 142 130 125 122 101 80 90 101 96 99 150 104 69 311 205
298 278 155 181 232 277 287 267 283 291 289 283 243 152 130 133 118 103 90 83 84 93 122 132 136 140 144 151 155 152 150 143 137 114 83 81 90 97 111 87 73 41 303 344
303 297 196 182 219 231 262 296 290 277 295 283 261 239 159 130 123 120 110 103 96 91 92 116 139 143 142 148 149 164 172 156 142 137 152 103 93 65 68 65 48 336 337 353
290 279 243 200 219 248 234 256 270 276 272 289 300 12 58 109 117 123 116 109 106 99 99 105 121 133 135 131 145 169 164 146 149 178 166 93 74 43 52 49 290 291 322 336
282 282 270 244 196 220 264 270 277 278 286 285 283 307 82 83 76 70 81 89 95 98 107 113 120 116 115 124 153 182 158 147 148 175 174 121 109 56 25 299 282 271 263 255
320 276 279 248 179 200 238 258 273 281 285 283 281 284 94 69 72 67 50 64 85 94 99 107 112 120 125 127 115 101 131 145 152 150 168 166 176 64 325 311 311 314 321 311
304 269 270 281 301 305 271 265 266 264 264 275 280 292 327 22 35 33 49 64 70 73 78 86 98 106 131 140 137 113 94 115 153 152 191 216 215 192 300 313 302 303 304 299
267 270 277 282 287 295 288 278 271 264 266 273 284 296 317 352 15 27 39 42 46 37 53 64 79 102 116 149 167 129 114 127 177 177 196 254 1 12 338 303 295 300 302 299
261 274 281 279 275 276 277 271 264 264 273 274 281 291 319 354 15 20 29 34 26 16 31 35 37 83 229 228 216 168 177 178 150 187 134 68 31 354 332 298 306 320 316 315
253 266 275 277 281 282 272 281 268 270 288 293 293 321 358 16 16 15 25 33 23 12 14 7 336 263 243 250 236 218 216 299 137 131 128 89 350 327 312 313 320 312 306 299
269 270 271 277 279 265 278 49 42 347 328 327 339 357 359 5 11 7 53 36 11 6 9 359 348 344 333 328 360 58 74 34 52 38 8 10 357 328 317 312 296 290 294 279
263 273 274 270 268 269 263 18 357 304 305 359 347 345 353 359 340 342 26 21 2 3 4 359 349 344 351 8 14 28 36 30 23 9 348 340 334 317 305 294 289 287 290 282
257 263 264 270 271 272 358 37 16 326 274 4 357 352 355 347 319 332 0 10 4 1 1 358 360 1 14 25 21 7 356 15 9 352 331 329 345 346 305 279 291 304 288 274
227 238 245 258 264 270 3 47 17 290 358 15 9 1 348 329 327 345 2 7 359 359 360 1 14 14 4 29 28 1 347 341 346 357 350 338 350 346 337 338 355 332 315 302
253 251 246 252 253 259 55 54 8 9 25 11 4 358 346 340 345 353 350 353 349 346 350 354 354 351 353 25 32 1 344 353 2 6 357 345 343 336 1 25 355 327 324 308
244 265 293 276 262 27 67 35 20 15 356 357 357 352 340 332 331 332 328 325 319 323 326 330 336 321 328 19 34 9 350 5 358 354 348 343 344 343 354 4 353 346 344 330
268 286 274 281 273 310 319 8 0 351 338 340 341 333 326 320 317 313 305 297 298 296 293 298 297 304 318 353 23 14 2 356 344 325 326 335 341 341 355 3 14 4 353 338
303 303 273 267 288 314 335 336 327 325 323 324 325 320 315 311 306 302 292 284 278 275 272 271 263 270 290 314 19 22 358 341 319 310 313 317 341 346 353 4 349 313 266 245
272 278 266 268 313 309 312 321 322 314 310 310 312 313 313 311 310 308 300 294 286 282 283 277 274 284 277 277 333 18 9 348 323 311 316 332 356 349 318 297 324 339 304 309